Flag for U.S.A. Weather past 2 weeks in Visalia, California, U.S.A.

Now
84 °F

Clear.


Feels Like: 84 °F
Forecast: 69 / 103 °F
Wind: 7 mph from Northwest

Location: Visalia Municipal

Current Time: Aug 1, 2014 at 10:22:26 PM

Latest Report: Aug 1, 2014 at 9:55 PM


Visibility: 10 mi

Pressure: 29.79 "Hg

Humidity: 43%

Dew point: 59 °F

Location of VisaliaLocation

Historic Weather in Visalia — Graph

°F

Visalia temperature yesterday

Maximum temperature yesterday: 104 °F (at 4:55 PM)
Minimum temperature yesterday: 70 °F (at 5:35 AM)
Average temperature yesterday: 87 °F

Past Weeks' High & Low Weather Summary

 TemperatureHumidityPressure
High104 °F (Jul 31, 4:55 PM)78% (Jul 21, 5:55 AM)30.13 "Hg (Jul 21, 5:55 AM)
Low63 °F (Jul 18, 5:55 AM)17% (Jul 26, 7:15 PM)29.75 "Hg (Jul 25, 6:15 PM)
Average82 °F48%29.90 "Hg
* Reported Jul 17 9:15 PM — Aug 1 9:15 PM, Visalia, Weather by CustomWeather, © 2014

Note: Actual official high and low records may vary slightly from our data, if they occured in-between our weather recording intervals... More about our weather records

Advertising

Visalia weather history for previous 24 hours

 ConditionsComfort  
Time TempWeatherWind HumidityBarometerVisibility
9:15 PM
Aug 1
90 °FClear.9 mph33%29.79 "Hg10 mi
8:55 PM90 °FSunny.7 mph36%29.78 "Hg10 mi
8:35 PM90 °FSunny.9 mph38%29.77 "Hg10 mi
7:55 PM93 °FSunny.8 mph32%29.77 "Hg10 mi
7:35 PM97 °FSunny.8 mph30%29.76 "Hg10 mi
7:15 PM99 °FSunny.7 mph27%29.76 "Hg10 mi
6:55 PM100 °FSunny.7 mph27%29.76 "Hg10 mi
6:35 PM100 °FSunny.7 mph27%29.75 "Hg10 mi
6:15 PM102 °FSunny.8 mph26%29.75 "Hg10 mi
5:55 PM102 °FSunny.6 mph26%29.75 "Hg10 mi
5:35 PM102 °FSunny.9 mph24%29.76 "Hg10 mi
5:15 PM102 °FSunny.9 mph23%29.76 "Hg10 mi
4:55 PM102 °FSunny.9 mph23%29.76 "Hg10 mi
4:35 PM102 °FSunny.9 mph24%29.77 "Hg10 mi
4:15 PM102 °FSunny.6 mph23%29.78 "Hg10 mi
3:55 PM102 °FSunny.13 mph23%29.79 "Hg10 mi
3:35 PM102 °FSunny.9 mph21%29.79 "Hg10 mi
3:15 PM102 °FSunny.9 mph21%29.79 "Hg10 mi
2:55 PM102 °FSunny.8 mph18%29.80 "Hg10 mi
2:35 PM102 °FSunny.6 mph20%29.81 "Hg10 mi
1:55 PM99 °FSunny.7 mph21%29.82 "Hg10 mi
1:35 PM99 °FSunny.7 mph21%29.83 "Hg10 mi
1:15 PM99 °FSunny.7 mph21%29.84 "Hg10 mi
12:55 PM97 °FSunny.7 mph23%29.83 "Hg10 mi
12:35 PM95 °FSunny.7 mph25%29.84 "Hg10 mi
12:15 PM93 °FSunny.5 mph28%29.84 "Hg10 mi
11:55 AM93 °FSunny.8 mph28%29.85 "Hg10 mi
11:35 AM91 °FSunny.6 mph30%29.86 "Hg10 mi
11:15 AM91 °FSunny.7 mph30%29.87 "Hg10 mi
10:55 AM88 °FSunny.6 mph40%29.87 "Hg10 mi
10:35 AM86 °FSunny.6 mph40%29.87 "Hg10 mi
10:15 AM84 °FSunny.6 mph43%29.88 "Hg10 mi
9:55 AM82 °FSunny.5 mph42%29.87 "Hg10 mi
9:35 AM81 °FSunny.3 mph45%29.87 "Hg10 mi
9:15 AM81 °FSunny.3 mph45%29.88 "Hg10 mi
8:55 AM79 °FSunny.3 mph48%29.88 "Hg10 mi
8:35 AM79 °FSunny.No wind45%29.88 "Hg10 mi
8:15 AM75 °FSunny.No wind50%29.88 "Hg10 mi
7:55 AM73 °FSunny.5 mph65%29.87 "Hg10 mi
7:35 AM72 °FSunny.3 mph69%29.87 "Hg10 mi
7:15 AM72 °FSunny.6 mph69%29.86 "Hg10 mi
6:55 AM70 °FClear.6 mph69%29.86 "Hg10 mi
6:35 AM66 °FClear.3 mph73%29.85 "Hg10 mi
5:55 AM68 °FClear.3 mph69%29.85 "Hg10 mi
5:35 AM70 °FClear.No wind64%29.84 "Hg10 mi
5:15 AM70 °FClear.No wind64%29.83 "Hg10 mi
4:55 AM70 °FClear.No wind64%29.83 "Hg10 mi
4:35 AM72 °FClear.5 mph65%29.83 "Hg10 mi
4:15 AM72 °FClear.5 mph65%29.83 "Hg10 mi
3:55 AM70 °FClear.No wind69%29.82 "Hg10 mi
3:35 AM72 °FClear.6 mph61%29.82 "Hg10 mi
3:15 AM72 °FClear.No wind65%29.82 "Hg10 mi
2:55 AM73 °FClear.No wind61%29.83 "Hg10 mi
2:35 AM75 °FClear.No wind57%29.83 "Hg10 mi
1:55 AM77 °FClear.No wind51%29.82 "Hg10 mi
1:35 AM79 °FClear.6 mph48%29.82 "Hg10 mi
1:15 AM81 °FClear.6 mph48%29.83 "Hg10 mi
12:55 AM79 °FClear.5 mph51%29.82 "Hg10 mi
12:35 AM81 °FClear.6 mph48%29.82 "Hg10 mi
12:15 AM81 °FClear.8 mph48%29.82 "Hg10 mi
11:55 PM
Jul 31
82 °FClear.9 mph45%29.82 "Hg10 mi
11:35 PM84 °FClear.6 mph43%29.82 "Hg10 mi
11:15 PM84 °FClear.8 mph40%29.82 "Hg10 mi
10:55 PM88 °FClear.7 mph35%29.82 "Hg10 mi
10:35 PM86 °FClear.7 mph43%29.81 "Hg10 mi
10:15 PM84 °FClear.7 mph48%29.81 "Hg10 mi
Weather by CustomWeather, © 2014

See weather overviewHow to use our weather pages